Regional Weather Roundup
Issued by NWS Portland, ME

Current Version | Previous Version | Text Only | Print | Product List | Glossary Off
Versions: 1 2 3 4 5 6 7 8 9 10 11 12 13 14 15 16 17 18 19 20 21 22 23 24 25 26 27 28 29 30 31 32 33 34 35 36 37 38 39 40 41 42 43 44 45 46 47 48 49 50
000 ASUS41 KGYX 252105 RWRGYX WEATHER ROUNDUP FOR MAINE AND NEW HAMPSHIRE NATIONAL WEATHER SERVICE GRAY ME 500 PM EDT TUE JUL 25 2017 MEZ002-005-006-010-012-015-018-020-021-024-026-027-029-252200- MAINE CITY SKY/WX TMP DP RH WIND PRES REMARKS PORTLAND PTSUNNY 71 56 58 SE9 30.14R SANFORD CLOUDY 71 56 58 W5 30.15R BAR HARBOR SUNNY 69 56 62 SW12 30.12R WISCASSET PTSUNNY 74 54 49 CALM 30.14R ROCKLAND MOSUNNY 66 55 67 S10 30.14R FRYEBURG MOSUNNY 73 55 53 NE7 30.15S LEWISTONAUBURN PTSUNNY 72 55 55 N7 30.14R AUGUSTA SUNNY 74 48 39 NE6 30.13S WATERVILLE SUNNY 74 51 44 N5 30.10S BANGOR MOSUNNY 77 47 34 N9 30.11S GREENVILLE N/A N/A N/A N/A MISG 30.13R MILLINOCKET PTSUNNY 78 46 32 VRB7 30.11R HOULTON MOSUNNY 79 51 37 N9 30.08S PRESQUE ISLE SUNNY 75 50 41 N7 30.12R FRENCHVILLE MOSUNNY 75 42 30 NW7 30.11S CARIBOU SUNNY 77 49 37 CALM 30.10S $$ NHZ002-005-008-009-011-012-014-252200- NEW HAMPSHIRE CITY SKY/WX TMP DP RH WIND PRES REMARKS PORTSMOUTH PTSUNNY 68 53 58 SE6 30.14S ROCHESTER MOSUNNY 71 54 54 VRB3 30.14S NASHUA CLOUDY 69 57 65 E5 30.16S MANCHESTER PTSUNNY 70 53 54 E6 30.14S CONCORD CLOUDY 68 56 65 E3 30.15S LACONIA MOSUNNY 70 53 54 CALM 30.15F PLYMOUTH CLOUDY 70 52 52 CALM 30.15S BERLIN CLOUDY 73 49 42 CALM 30.16S WHITEFIELD CLOUDY 69 55 60 W5 30.16S JAFFREY CLOUDY 65 58 78 CALM 30.18S KEENE N/A 66 56 70 CALM 30.17R LEBANON CLOUDY 70 57 63 VRB3 30.17R MT WASHINGTON PTSUNNY 46 39 76 NE8 N/A $$ VTZ005-007-008-252200- VERMONT CITY SKY/WX TMP DP RH WIND PRES REMARKS ST JOHNSBURY N/A 72 56 57 MISG 30.14F MONTPELIER PTSUNNY 66 56 70 SW5 30.22S BURLINGTON PTSUNNY 69 56 62 VRB5 30.18S $$ MAZ007-012-024-CTZ003-RIZ002-NYZ038-NYZ072-252200- SOUTHERN NEW ENGLAND AND NY CITY SKY/WX TMP DP RH WIND PRES REMARKS BOSTON PTSUNNY 65 58 78 E13 30.16S WORCESTER CLOUDY 60 54 80 N3 30.18R NANTUCKET CLOUDY 65 57 75 N17 30.11F PROVIDENCE CLOUDY 63 57 81 NE12 30.16S HARTFORD PTSUNNY 68 57 68 VRB7 30.16S ALBANY CLOUDY 65 58 78 N6 30.17S NEW YORK CITY CLOUDY 69 61 75 NE10 30.13S $$ ANZ081-ANZ082-ANZ150-NHZ014-MEZ023>029-252200- COASTAL MARINE OBSERVATIONS STATION/POSITION TIME TEMP WIND PRES WAVE AIR SEA DIR/SP/G HT/PER (UTC) (F) (DEG/KT/KT) (MB) (FT/S) MOUNT DESERT ROC 2100 59 1020.0R MATINICUS ROCK 2000 62 80/ 6/ 6 1020.0R ISLE OF SHOALS 2000 63 80/ 5/ 6 1020.8R JEFFREYS LEDGE 2006 65 N/A 6/ 8 CASHES LEDGE BUO 1950 65 61 1020.4 5/ 6 GEORGES BANK BUO 1950 59 58 1016.4 7/ 9 $$ .............KEY.............. WCI - WIND CHILL TC - TEMPERATURE IN CELSIUS VSB - VISIBILITY IN MILES HX - HEAT INDEX FAIR- INDICATES FEW OR NO CLOUDS BELOW 12,000 FT, WITH NO SIGNIFICANT WEATHER AND/OR OBSTRUCTIONS TO VISIBILITY.

USA.gov is the U.S. government's official web portal to all federal, state and local government web resources and services.